Flag for U.S.A. Weather past 2 weeks in Kailua-Kona, Hawaii, U.S.A.

Now
81 °F

Overcast.


Feels Like: 85 °F
Forecast: 72 / 81 °F
Wind: 8 mph from Southwest

Location: Keahole Airport

Current Time: Jul 4, 2015 at 1:16:12 AM

Latest Report: Jul 4, 2015 at 1:01 AM


Visibility: 10 mi

Pressure: 29.91 "Hg

Humidity: 79%

Dew point: 73 °F

Location of Kailua-KonaLocation

Historic Weather in Kailua-Kona — Graph

°F

Kailua-Kona temperature yesterday

Maximum temperature yesterday: 86 °F (at 12:53 PM)
Minimum temperature yesterday: 77 °F (at 5:53 AM)
Average temperature yesterday: 82 °F

Past Weeks' High & Low Weather Summary

 TemperatureHumidityPressure
High87 °F (Jun 30, 1:53 PM)89% (Jun 22, 2:11 AM)30.03 "Hg (Jun 22, 2:11 AM)
Low73 °F (Jun 23, 5:53 AM)53% (Jun 23, 5:53 PM)29.83 "Hg (Jul 1, 4:53 PM)
Average81 °F70%29.94 "Hg
* Reported Jun 18 11:53 PM — Jul 3 11:53 PM, Kailua-Kona, Weather by CustomWeather, © 2015

Note: Actual official high and low records may vary slightly from our data, if they occured in-between our weather recording intervals... More about our weather records

Advertising

Kailua-Kona weather history for previous 24 hours

 ConditionsComfort  
Time TempWeatherWind HumidityBarometerVisibility
11:53 PM
Fri, Jul 3
80 °FOvercast.10 mph79%29.93 "Hg10 mi
11:15 PM81 °FMostly cloudy.10 mph79%29.93 "Hg10 mi
10:53 PM81 °FOvercast.12 mph79%29.93 "Hg10 mi
10:00 PM81 °FOvercast.9 mph79%29.92 "Hg10 mi
8:53 PM82 °FPartly cloudy.12 mph74%29.90 "Hg10 mi
7:53 PM82 °FPartly cloudy.12 mph74%29.88 "Hg10 mi
6:53 PM82 °FBroken clouds.10 mph74%29.87 "Hg10 mi
5:53 PM83 °FBroken clouds.8 mph70%29.85 "Hg10 mi
4:53 PM84 °FMostly cloudy.9 mph70%29.85 "Hg6 mi
3:53 PM84 °FBroken clouds.10 mph70%29.85 "Hg6 mi
2:53 PM85 °FMostly cloudy.10 mph68%29.85 "Hg8 mi
1:53 PM86 °FMore clouds than sun.12 mph65%29.86 "Hg9 mi
12:53 PM86 °FMore clouds than sun.12 mph67%29.88 "Hg10 mi
11:53 AM85 °FPartly sunny.10 mph65%29.89 "Hg10 mi
10:53 AM85 °FSunny.12 mph65%29.89 "Hg10 mi
9:53 AM83 °FSunny.8 mph72%29.89 "Hg10 mi
8:53 AM83 °FSunny.8 mph70%29.89 "Hg10 mi
7:53 AM83 °FSunny.9 mph68%29.89 "Hg10 mi
6:53 AM80 °FSunny.8 mph71%29.89 "Hg10 mi
5:53 AM77 °FPassing clouds.5 mph82%29.88 "Hg10 mi
4:53 AM78 °FClear.5 mph79%29.88 "Hg10 mi
4:07 AM79 °FMostly cloudy.6 mph74%29.88 "Hg10 mi
3:53 AM79 °FMostly cloudy.5 mph77%29.88 "Hg10 mi
2:53 AM80 °FMostly cloudy.No wind76%29.88 "Hg10 mi
1:53 AM80 °FPartly cloudy.7 mph76%29.89 "Hg10 mi
1:45 AM81 °FPassing clouds.5 mph74%29.90 "Hg10 mi
Weather by CustomWeather, © 2015

See weather overviewHow to use our weather pages